Monroe, NC

12:20 PM EST on January 23, 2017 (GMT -0500)
Monroe

Weather History for KEQY - October, 2012

Change the Weather History Date:

Tuesday, October 9, 2012

  Actual Average (KCLT) Record (KCLT)
Temperature  
Mean Temperature 52 °F -  
Max Temperature 57 °F 73 °F 92 °F (2007)
Min Temperature 46 °F 52 °F 31 °F (2000)
Degree Days  
Heating Degree Days 14    
Growing Degree Days 2 (Base 50)    
Moisture  
Dew Point 48 °F    
Average Humidity 88    
Maximum Humidity 100    
Minimum Humidity 74    
Precipitation  
Precipitation 0.00 in - - ()
Sea Level Pressure  
Sea Level Pressure 30.16 in    
Wind  
Wind Speed 6 mph (NNE)    
Max Wind Speed 9 mph    
Max Gust Speed -    
Visibility 8 miles    
Events      
Averages and records for this station are not official NWS values.
T = Trace of Precipitation, MM = Missing Value Source: NWS Daily Summary

Daily Weather History Graph

Daily Weather History Graph

Search for Another Location

Airport or City:

Trip Planner

Search our weather history database for the weather conditions in past years. The results will help you decide how hot, cold, wet, or windy it might be!

Date:

Astronomy

Oct. 09, 2012 Rise Set
Actual Time 7:23 AM EDT 6:54 PM EDT
Civil Twilight 6:58 AM EDT 7:20 PM EDT
Nautical Twilight 6:29 AM EDT 7:49 PM EDT
Astronomical Twilight 5:59 AM EDT 8:18 PM EDT
Moon 1:12 AM EDT (10/9) 3:08 PM EDT (10/9)
Length of Visible Light 12h 21m
Length of Day
11h 30m
Last Quarter, 37% of the Moon is Illuminated
Oct 9
Last Quarter
Oct 15
New
Oct 21
First Quarter
Oct 29
Full
Nov 6
Last Quarter

Hourly Weather History & Observations

Time (EDT) Temp. Windchill Dew Point Humidity Pressure Visibility Wind Dir Wind Speed Gust Speed Precip Events Conditions
12:53 AM 46.9 °F - 46.0 °F 97% 30.18 in 7.0 mi North 8.1 mph - N/A   Overcast
1:11 AM 46.4 °F 42.9 °F 46.4 °F 100% 30.14 in 6.0 mi NNE 6.9 mph - N/A   Overcast
1:53 AM 46.9 °F - 46.0 °F 97% 30.18 in 7.0 mi NNE 6.9 mph - N/A   Overcast
2:53 AM 46.9 °F - 46.0 °F 97% 30.17 in 4.0 mi North 5.8 mph - N/A   Overcast
4:39 AM 46.4 °F 42.9 °F 46.4 °F 100% 30.12 in 5.0 mi North 6.9 mph - N/A   Overcast
4:53 AM 46.9 °F - 46.0 °F 97% 30.16 in 5.0 mi North 6.9 mph - N/A   Overcast
5:32 AM 46.4 °F 42.9 °F 46.4 °F 100% 30.13 in 4.0 mi North 6.9 mph - N/A   Overcast
5:53 AM 46.9 °F - 46.0 °F 97% 30.17 in 7.0 mi North 8.1 mph - N/A   Overcast
7:53 AM 48.0 °F - 46.0 °F 93% 30.20 in 5.0 mi NNE 8.1 mph - N/A   Overcast
8:53 AM 48.0 °F - 46.9 °F 96% 30.21 in 6.0 mi North 8.1 mph - N/A   Overcast
9:53 AM 48.9 °F - 46.9 °F 93% 30.22 in 7.0 mi North 6.9 mph - N/A   Overcast
10:53 AM 50.0 °F - 46.9 °F 89% 30.22 in 10.0 mi North 9.2 mph - N/A   Overcast
11:53 AM 52.0 °F - 48.0 °F 86% 30.20 in 10.0 mi NNE 6.9 mph - N/A   Overcast
12:29 PM 53.6 °F - 48.2 °F 82% 30.15 in 10.0 mi NE 6.9 mph - N/A   Overcast
12:53 PM 53.1 °F - 48.0 °F 83% 30.19 in 10.0 mi North 4.6 mph - N/A   Overcast
1:53 PM 54.0 °F - 48.9 °F 83% 30.16 in 10.0 mi ENE 5.8 mph - N/A   Overcast
2:53 PM 55.0 °F - 48.9 °F 80% 30.15 in 10.0 mi WNW 3.5 mph - N/A   Overcast
3:25 PM 55.4 °F - 48.2 °F 77% 30.10 in 10.0 mi Calm Calm - N/A   Overcast
3:53 PM 57.0 °F - 48.9 °F 74% 30.14 in 10.0 mi Calm Calm - N/A   Overcast
4:53 PM 57.9 °F - 50.0 °F 75% 30.13 in 10.0 mi Calm Calm - N/A   Overcast
5:53 PM 57.0 °F - 48.9 °F 74% 30.13 in 10.0 mi North 3.5 mph - N/A   Overcast
6:53 PM 57.0 °F - 48.9 °F 74% 30.13 in 10.0 mi North 5.8 mph - N/A   Overcast
7:53 PM 55.9 °F - 48.9 °F 77% 30.12 in 10.0 mi Calm Calm - N/A   Overcast
8:53 PM 55.0 °F - 51.1 °F 86% 30.14 in 10.0 mi Calm Calm - N/A   Overcast
9:53 PM 55.0 °F - 51.1 °F 86% 30.15 in 10.0 mi Calm Calm - N/A   Overcast
10:53 PM 55.0 °F - 52.0 °F 89% 30.14 in 10.0 mi Calm Calm - N/A   Overcast
11:53 PM 55.0 °F - 52.0 °F 89% 30.13 in 10.0 mi Calm Calm - N/A   Overcast